| time (UTC) | temp C | wind direction | speed KPH | gust KPH | rain 1hr cm | rain 24hr cm | rain mn cm | humidity % | barometer mb |
| 20260503213514 | 31 | 177 | 8.0 | 16.1 | 0.00 | 0.00 | 0.00 | 71 | 1008.8 |
| 20260503213106 | 31 | 186 | 6.4 | 14.5 | 0.00 | 0.00 | 0.00 | 71 | 1008.8 |
| 20260503212616 | 31 | 235 | 8.0 | 14.5 | 0.00 | 0.00 | 0.00 | 72 | 1008.9 |
| 20260503212005 | 31 | 204 | 8.0 | 16.1 | 0.00 | 0.00 | 0.00 | 72 | 1009.0 |
| 20260503211525 | 31 | 173 | 9.7 | 17.7 | 0.00 | 0.00 | 0.00 | 72 | 1009.1 |
| 20260503211050 | 31 | 235 | 6.4 | 16.1 | 0.00 | 0.00 | 0.00 | 72 | 1009.2 |
| 20260503210612 | 31 | 234 | 4.8 | 20.9 | 0.00 | 0.00 | 0.00 | 72 | 1009.3 |
| 20260503210009 | 31 | 249 | 8.0 | 17.7 | 0.00 | 0.00 | 0.00 | 72 | 1009.3 |
| 20260503205534 | 31 | 219 | 8.0 | 19.3 | 0.00 | 0.00 | 0.00 | 72 | 1009.3 |
| 20260503205053 | 31 | 202 | 6.4 | 16.1 | 0.00 | 0.00 | 0.00 | 71 | 1009.3 |
| 20260503204612 | 31 | 212 | 9.7 | 16.1 | 0.00 | 0.00 | 0.00 | 72 | 1009.4 |
| 20260503204016 | 31 | 215 | 3.2 | 19.3 | 0.00 | 0.00 | 0.00 | 72 | 1009.5 |
| 20260503203534 | 31 | 187 | 11.3 | 20.9 | 0.00 | 0.00 | 0.00 | 71 | 1009.6 |
| 20260503203053 | 31 | 167 | 11.3 | 19.3 | 0.00 | 0.00 | 0.00 | 71 | 1009.7 |
| 20260503202609 | 31 | 224 | 9.7 | 17.7 | 0.00 | 0.00 | 0.00 | 71 | 1009.8 |
| 20260503202019 | 31 | 242 | 8.0 | 14.5 | 0.00 | 0.00 | 0.00 | 71 | 1009.9 |
| 20260503201533 | 31 | 213 | 9.7 | 14.5 | 0.00 | 0.00 | 0.00 | 72 | 1009.9 |
| 20260503201058 | 30 | 221 | 6.4 | 17.7 | 0.00 | 0.00 | 0.00 | 72 | 1010.0 |
| 20260503200620 | 30 | 185 | 8.0 | 17.7 | 0.00 | 0.00 | 0.00 | 72 | 1010.1 |
| 20260503200043 | 30 | 223 | 8.0 | 17.7 | 0.00 | 0.00 | 0.00 | 72 | 1010.2 |
| 20260503195522 | 30 | 250 | 8.0 | 20.9 | 0.00 | 0.00 | 0.00 | 71 | 1010.1 |
| 20260503195048 | 30 | 220 | 8.0 | 20.9 | 0.00 | 0.00 | 0.00 | 71 | 1010.2 |
| 20260503194607 | 31 | 238 | 11.3 | 19.3 | 0.00 | 0.00 | 0.00 | 70 | 1010.2 |
| 20260503194007 | 31 | 267 | 6.4 | 19.3 | 0.00 | 0.00 | 0.00 | 70 | 1010.2 |
| 20260503193527 | 31 | 232 | 6.4 | 19.3 | 0.00 | 0.00 | 0.00 | 69 | 1010.2 |
| 20260503193107 | 31 | 156 | 6.4 | 19.3 | 0.00 | 0.00 | 0.00 | 69 | 1010.3 |
| 20260503192614 | 31 | 259 | 9.7 | 16.1 | 0.00 | 0.00 | 0.00 | 69 | 1010.3 |
| 20260503192005 | 31 | 250 | 8.0 | 16.1 | 0.00 | 0.00 | 0.00 | 68 | 1010.3 |
| 20260503191521 | 31 | 174 | 8.0 | 16.1 | 0.00 | 0.00 | 0.00 | 67 | 1010.3 |
| 20260503191054 | 31 | 275 | 9.7 | 19.3 | 0.00 | 0.00 | 0.00 | 67 | 1010.2 |
| 20260503190612 | 31 | 180 | 9.7 | 16.1 | 0.00 | 0.00 | 0.00 | 66 | 1010.3 |
| 20260503190014 | 32 | 175 | 6.4 | 17.7 | 0.00 | 0.00 | 0.00 | 66 | 1010.4 |
| 20260503185528 | 31 | 223 | 6.4 | 17.7 | 0.00 | 0.00 | 0.00 | 67 | 1010.5 |
| 20260503185100 | 32 | 202 | 6.4 | 14.5 | 0.00 | 0.00 | 0.00 | 66 | 1010.5 |
| 20260503184617 | 31 | 194 | 4.8 | 14.5 | 0.00 | 0.00 | 0.00 | 67 | 1010.5 |
| 20260503184016 | 31 | 200 | 4.8 | 14.5 | 0.00 | 0.00 | 0.00 | 67 | 1010.6 |
| 20260503183535 | 31 | 205 | 8.0 | 16.1 | 0.00 | 0.00 | 0.00 | 66 | 1010.5 |
| 20260503183112 | 31 | 205 | 6.4 | 14.5 | 0.00 | 0.00 | 0.00 | 67 | 1010.6 |
| 20260503182516 | 31 | 244 | 6.4 | 12.9 | 0.00 | 0.00 | 0.00 | 66 | 1010.8 |
| 20260503182059 | 31 | 196 | 6.4 | 12.9 | 0.00 | 0.00 | 0.00 | 67 | 1010.8 |
| 20260503181614 | 31 | 226 | 6.4 | 14.5 | 0.00 | 0.00 | 0.00 | 69 | 1010.9 |
| 20260503181007 | 31 | 229 | 6.4 | 14.5 | 0.00 | 0.00 | 0.00 | 67 | 1011.0 |
| 20260503180526 | 31 | 190 | 6.4 | 14.5 | 0.00 | 0.00 | 0.00 | 67 | 1011.0 |
| 20260503180053 | 31 | 177 | 6.4 | 14.5 | 0.00 | 0.00 | 0.00 | 67 | 1011.1 |
| 20260503175604 | 31 | 229 | 4.8 | 12.9 | 0.00 | 0.00 | 0.00 | 68 | 1011.1 |
| 20260503175008 | 30 | 244 | 6.4 | 12.9 | 0.00 | 0.00 | 0.00 | 68 | 1011.1 |
| 20260503174528 | 30 | 192 | 6.4 | 12.9 | 0.00 | 0.00 | 0.00 | 69 | 1011.1 |
| 20260503174050 | 30 | 287 | 4.8 | 12.9 | 0.00 | 0.00 | 0.00 | 68 | 1011.1 |
| 20260503173606 | 30 | 227 | 8.0 | 14.5 | 0.00 | 0.00 | 0.00 | 68 | 1011.2 |
| 20260503173021 | 30 | 208 | 6.4 | 14.5 | 0.00 | 0.00 | 0.00 | 68 | 1011.2 |
| 20260503172540 | 30 | 253 | 8.0 | 11.3 | 0.00 | 0.00 | 0.00 | 67 | 1011.2 |
| 20260503172104 | 30 | 263 | 4.8 | 11.3 | 0.00 | 0.00 | 0.00 | 68 | 1011.3 |
| 20260503171622 | 30 | 240 | 4.8 | 11.3 | 0.00 | 0.00 | 0.00 | 68 | 1011.3 |
| 20260503171010 | 30 | 222 | 6.4 | 11.3 | 0.00 | 0.00 | 0.00 | 68 | 1011.3 |
| 20260503170528 | 30 | 198 | 4.8 | 9.7 | 0.00 | 0.00 | 0.00 | 68 | 1011.3 |
| 20260503150625 | 28 | 321 | 1.6 | 8.0 | 0.00 | 0.00 | 0.00 | 65 | 1011.3 |
| 20260503131103 | 25 | 5 | 3.2 | 4.8 | 0.00 | 0.00 | 0.00 | 81 | 1010.2 |
| 20260503130623 | 25 | 98 | 0.0 | 1.6 | 0.00 | 0.00 | 0.00 | 81 | 1010.0 |
| 20260503110526 | 25 | 98 | 0.0 | 4.8 | 0.00 | 0.00 | 0.00 | 80 | 1008.6 |
| 20260503081536 | 27 | 121 | 0.0 | 3.2 | 0.00 | 0.00 | 0.00 | 77 | 1008.6 |
| 20260503081105 | 27 | 121 | 0.0 | 3.2 | 0.00 | 0.00 | 0.00 | 77 | 1008.6 |
| 20260503080622 | 27 | 121 | 0.0 | 3.2 | 0.00 | 0.00 | 0.00 | 77 | 1008.6 |
| 20260503072623 | 27 | 124 | 0.0 | 4.8 | 0.00 | 0.00 | 0.00 | 78 | 1009.0 |
| 20260503072016 | 27 | 124 | 1.6 | 4.8 | 0.00 | 0.00 | 0.00 | 78 | 1009.1 |
| 20260503071534 | 27 | 126 | 1.6 | 4.8 | 0.00 | 0.00 | 0.00 | 78 | 1009.0 |
| 20260503071113 | 27 | 116 | 0.0 | 4.8 | 0.00 | 0.00 | 0.00 | 78 | 1009.1 |
| 20260503070623 | 27 | 109 | 1.6 | 4.8 | 0.00 | 0.00 | 0.00 | 78 | 1009.1 |
| 20260503055055 | 27 | 186 | 1.6 | 8.0 | 0.00 | 0.00 | 0.00 | 80 | 1009.4 |
| 20260503054614 | 27 | 199 | 3.2 | 8.0 | 0.00 | 0.00 | 0.00 | 80 | 1009.5 |
| 20260503054022 | 27 | 177 | 4.8 | 8.0 | 0.00 | 0.00 | 0.00 | 81 | 1009.5 |
| 20260503053541 | 27 | 167 | 3.2 | 8.0 | 0.00 | 0.00 | 0.00 | 81 | 1009.5 |
| 20260503053127 | 27 | 178 | 3.2 | 6.4 | 0.00 | 0.00 | 0.00 | 81 | 1009.5 |
| 20260503052515 | 27 | 185 | 3.2 | 6.4 | 0.00 | 0.00 | 0.00 | 81 | 1009.5 |
| 20260503052105 | 27 | 155 | 3.2 | 8.0 | 0.00 | 0.00 | 0.00 | 81 | 1009.5 |
| 20260503051624 | 27 | 181 | 4.8 | 8.0 | 0.00 | 0.00 | 0.00 | 81 | 1009.4 |
| 20260503051134 | 27 | 220 | 3.2 | 8.0 | 0.00 | 0.00 | 0.00 | 82 | 1009.4 |
| 20260503050525 | 27 | 229 | 3.2 | 8.0 | 0.00 | 0.00 | 0.00 | 82 | 1009.4 |
| 20260503050045 | 27 | 225 | 3.2 | 8.0 | 0.00 | 0.00 | 0.00 | 82 | 1009.3 |
| 20260503045608 | 27 | 194 | 3.2 | 8.0 | 0.00 | 0.00 | 0.00 | 82 | 1009.3 |
| 20260503045131 | 27 | 178 | 3.2 | 6.4 | 0.00 | 0.00 | 0.00 | 82 | 1009.3 |
| 20260503044521 | 27 | 213 | 1.6 | 6.4 | 0.00 | 0.00 | 0.00 | 82 | 1009.3 |
| 20260503044111 | 27 | 213 | 1.6 | 6.4 | 0.00 | 0.00 | 0.00 | 82 | 1009.3 |
| 20260503043625 | 27 | 211 | 3.2 | 8.0 | 0.00 | 0.00 | 0.00 | 82 | 1009.2 |
| 20260503043042 | 27 | 195 | 1.6 | 8.0 | 0.00 | 0.00 | 0.00 | 82 | 1009.1 |
| 20260503042614 | 27 | 197 | 1.6 | 8.0 | 0.00 | 0.00 | 0.00 | 82 | 1009.1 |
| 20260503042017 | 27 | 222 | 3.2 | 8.0 | 0.00 | 0.00 | 0.00 | 82 | 1009.1 |
| 20260503041539 | 27 | 217 | 4.8 | 8.0 | 0.00 | 0.00 | 0.00 | 82 | 1009.0 |
| 20260503041055 | 27 | 205 | 4.8 | 8.0 | 0.00 | 0.00 | 0.00 | 81 | 1008.9 |
| 20260503040613 | 27 | 236 | 1.6 | 8.0 | 0.00 | 0.00 | 0.00 | 81 | 1009.0 |
| 20260503040013 | 27 | 198 | 3.2 | 8.0 | 0.00 | 0.00 | 0.00 | 81 | 1008.9 |
| 20260503035530 | 27 | 221 | 3.2 | 6.4 | 0.00 | 0.00 | 0.00 | 81 | 1008.8 |
| 20260503035101 | 27 | 204 | 1.6 | 6.4 | 0.00 | 0.00 | 0.00 | 81 | 1008.8 |
| 20260503034614 | 27 | 240 | 1.6 | 6.4 | 0.00 | 0.00 | 0.00 | 81 | 1008.7 |
| 20260503034005 | 27 | 196 | 0.0 | 6.4 | 0.00 | 0.00 | 0.00 | 81 | 1008.7 |
| 20260503033528 | 27 | 196 | 3.2 | 6.4 | 0.00 | 0.00 | 0.00 | 81 | 1008.5 |
| 20260503033109 | 27 | 212 | 1.6 | 4.8 | 0.00 | 0.00 | 0.00 | 81 | 1008.5 |
| 20260503032609 | 27 | 246 | 0.0 | 4.8 | 0.00 | 0.00 | 0.00 | 81 | 1008.3 |
| 20260503032022 | 27 | 265 | 1.6 | 4.8 | 0.00 | 0.00 | 0.00 | 81 | 1008.3 |
| 20260503031550 | 27 | 265 | 0.0 | 6.4 | 0.00 | 0.00 | 0.00 | 81 | 1008.2 |
| 20260503031105 | 27 | 265 | 1.6 | 6.4 | 0.00 | 0.00 | 0.00 | 81 | 1008.1 |
| 20260503030617 | 27 | 252 | 1.6 | 4.8 | 0.00 | 0.00 | 0.00 | 81 | 1008.1 |
| 20260503030011 | 27 | 252 | 3.2 | 6.4 | 0.00 | 0.00 | 0.00 | 81 | 1007.9 |
| 20260503025531 | 27 | 242 | 1.6 | 6.4 | 0.00 | 0.00 | 0.00 | 81 | 1007.8 |
| 20260503025057 | 27 | 260 | 1.6 | 6.4 | 0.00 | 0.00 | 0.00 | 81 | 1007.7 |
| 20260503024625 | 27 | 259 | 1.6 | 6.4 | 0.00 | 0.00 | 0.00 | 81 | 1007.6 |
| 20260503024002 | 27 | 197 | 1.6 | 4.8 | 0.00 | 0.00 | 0.00 | 81 | 1007.7 |
| 20260503023517 | 27 | 198 | 1.6 | 4.8 | 0.00 | 0.00 | 0.00 | 80 | 1007.6 |
| 20260503023120 | 27 | 196 | 1.6 | 4.8 | 0.00 | 0.00 | 0.00 | 80 | 1007.5 |
| 20260503022623 | 27 | 192 | 1.6 | 6.4 | 0.00 | 0.00 | 0.00 | 80 | 1007.5 |
| 20260503022019 | 27 | 188 | 1.6 | 8.0 | 0.00 | 0.00 | 0.00 | 80 | 1007.4 |
| 20260503021541 | 27 | 184 | 3.2 | 6.4 | 0.00 | 0.00 | 0.00 | 80 | 1007.3 |
| 20260503021053 | 27 | 238 | 3.2 | 11.3 | 0.00 | 0.00 | 0.00 | 80 | 1007.2 |
| 20260503020614 | 27 | 254 | 3.2 | 12.9 | 0.00 | 0.00 | 0.00 | 80 | 1007.2 |
| 20260503020011 | 27 | 169 | 4.8 | 11.3 | 0.00 | 0.00 | 0.00 | 80 | 1007.2 |
| 20260503015527 | 27 | 227 | 4.8 | 12.9 | 0.00 | 0.00 | 0.00 | 80 | 1007.2 |
| 20260503015042 | 27 | 240 | 3.2 | 12.9 | 0.00 | 0.00 | 0.00 | 80 | 1007.1 |
| 20260503014605 | 27 | 211 | 4.8 | 12.9 | 0.00 | 0.00 | 0.00 | 79 | 1007.0 |
| 20260503014009 | 27 | 185 | 8.0 | 12.9 | 0.00 | 0.00 | 0.00 | 79 | 1007.0 |
| 20260503013531 | 27 | 188 | 6.4 | 9.7 | 0.00 | 0.00 | 0.00 | 79 | 1007.0 |
| 20260503013057 | 27 | 196 | 4.8 | 9.7 | 0.00 | 0.00 | 0.00 | 79 | 1007.0 |
| 20260503012617 | 28 | 197 | 3.2 | 14.5 | 0.00 | 0.00 | 0.00 | 79 | 1007.1 |
| 20260503012013 | 28 | 190 | 8.0 | 14.5 | 0.00 | 0.00 | 0.00 | 79 | 1007.1 |
| 20260503011537 | 28 | 226 | 6.4 | 12.9 | 0.00 | 0.00 | 0.00 | 79 | 1007.1 |
| 20260503011115 | 28 | 196 | 3.2 | 11.3 | 0.00 | 0.00 | 0.00 | 79 | 1007.1 |
| 20260503010519 | 28 | 241 | 3.2 | 11.3 | 0.00 | 0.00 | 0.00 | 80 | 1007.0 |
| 20260503010044 | 28 | 218 | 3.2 | 11.3 | 0.00 | 0.00 | 0.00 | 80 | 1007.0 |
| 20260503005619 | 28 | 288 | 3.2 | 14.5 | 0.00 | 0.00 | 0.00 | 80 | 1006.9 |
| 20260503005015 | 28 | 265 | 4.8 | 14.5 | 0.00 | 0.00 | 0.00 | 80 | 1006.9 |
| 20260503004529 | 28 | 213 | 3.2 | 12.9 | 0.00 | 0.00 | 0.00 | 80 | 1006.9 |
| 20260503004102 | 28 | 261 | 1.6 | 14.5 | 0.00 | 0.00 | 0.00 | 79 | 1006.8 |
| 20260503003618 | 28 | 43 | 3.2 | 14.5 | 0.00 | 0.00 | 0.00 | 79 | 1006.6 |
| 20260503003011 | 28 | 240 | 3.2 | 12.9 | 0.00 | 0.00 | 0.00 | 79 | 1006.7 |
| 20260503002531 | 28 | 252 | 4.8 | 12.9 | 0.00 | 0.00 | 0.00 | 78 | 1006.7 |
| 20260503002101 | 28 | 198 | 3.2 | 12.9 | 0.00 | 0.00 | 0.00 | 78 | 1006.6 |
| 20260503001621 | 28 | 171 | 6.4 | 16.1 | 0.00 | 0.00 | 0.00 | 78 | 1006.6 |
| 20260503001005 | 28 | 207 | 6.4 | 16.1 | 0.00 | 0.00 | 0.00 | 77 | 1006.5 |
| 20260503000526 | 28 | 157 | 4.8 | 12.9 | 0.00 | 0.00 | 0.00 | 77 | 1006.6 |
| 20260503000038 | 28 | 245 | 4.8 | 12.9 | 0.00 | 0.00 | 0.00 | 77 | 1006.5 |
| 20260502235624 | 29 | 268 | 3.2 | 12.9 | 0.00 | 0.00 | 0.00 | 76 | 1006.6 |
| 20260502235043 | 29 | 254 | 4.8 | 11.3 | 0.00 | 0.00 | 0.00 | 77 | 1006.5 |
| 20260502234617 | 29 | 223 | 4.8 | 17.7 | 0.00 | 0.00 | 0.00 | 77 | 1006.5 |
| 20260502234013 | 29 | 273 | 6.4 | 19.3 | 0.00 | 0.00 | 0.00 | 76 | 1006.4 |
| 20260502233534 | 29 | 217 | 8.0 | 19.3 | 0.00 | 0.00 | 0.00 | 76 | 1006.4 |
| 20260502233111 | 29 | 264 | 6.4 | 19.3 | 0.00 | 0.00 | 0.00 | 76 | 1006.4 |
| 20260502232623 | 29 | 249 | 6.4 | 16.1 | 0.00 | 0.00 | 0.00 | 75 | 1006.3 |
| 20260502231613 | 29 | 198 | 9.7 | 20.9 | 0.00 | 0.00 | 0.00 | 75 | 1006.2 |
| 20260502231006 | 29 | 173 | 9.7 | 19.3 | 0.00 | 0.00 | 0.00 | 75 | 1006.3 |
| 20260502230524 | 29 | 219 | 9.7 | 16.1 | 0.00 | 0.00 | 0.00 | 75 | 1006.4 |
| 20260502230053 | 30 | 194 | 9.7 | 16.1 | 0.00 | 0.00 | 0.00 | 73 | 1006.5 |
| 20260502225614 | 30 | 215 | 9.7 | 19.3 | 0.00 | 0.00 | 0.00 | 73 | 1006.6 |
| 20260502225009 | 30 | 201 | 6.4 | 19.3 | 0.00 | 0.00 | 0.00 | 73 | 1006.6 |
| 20260502224530 | 30 | 165 | 8.0 | 14.5 | 0.00 | 0.00 | 0.00 | 71 | 1006.6 |
| 20260502224102 | 31 | 243 | 4.8 | 11.3 | 0.00 | 0.00 | 0.00 | 71 | 1006.6 |
| 20260502223619 | 31 | 239 | 6.4 | 11.3 | 0.00 | 0.00 | 0.00 | 71 | 1006.6 |
| 20260502223003 | 31 | 239 | 4.8 | 17.7 | 0.00 | 0.00 | 0.00 | 71 | 1006.7 |
| 20260502222527 | 31 | 217 | 8.0 | 17.7 | 0.00 | 0.00 | 0.00 | 70 | 1006.8 |
| 20260502222056 | 31 | 257 | 6.4 | 17.7 | 0.00 | 0.00 | 0.00 | 70 | 1006.8 |
| 20260502221620 | 31 | 203 | 8.0 | 17.7 | 0.00 | 0.00 | 0.00 | 70 | 1006.8 |
| 20260502221036 | 31 | 192 | 6.4 | 16.1 | 0.00 | 0.00 | 0.00 | 69 | 1006.8 |
| 20260502220559 | 31 | 206 | 6.4 | 16.1 | 0.00 | 0.00 | 0.00 | 69 | 1006.9 |
| 20260502220007 | 31 | 218 | 8.0 | 16.1 | 0.00 | 0.00 | 0.00 | 69 | 1006.9 |
| 20260502215531 | 31 | 210 | 4.8 | 24.1 | 0.00 | 0.00 | 0.00 | 69 | 1006.9 |
| 20260502215056 | 31 | 184 | 9.7 | 24.1 | 0.00 | 0.00 | 0.00 | 69 | 1007.0 |
| 20260502214619 | 31 | 201 | 8.0 | 17.7 | 0.00 | 0.00 | 0.00 | 69 | 1006.9 |